Regional Weather Roundup
Issued by NWS

Home | Current Version | Previous Version | Graphics & Text | Print | Product List | Glossary On
Versions: 1 2 3 4 5 6 7 8 9 10 11 12 13 14 15 16 17 18 19 20 21 22 23 24 25 26 27 28 29 30 31 32 33 34 35 36 37 38 39 40 41 42 43 44 45 46 47 48 49 50
000
ASUS43 KLSX 240407
RWRMO

WEATHER SUMMARY FOR MISSOURI
NATIONAL WEATHER SERVICE SPRINGFIELD MO
1100 PM CDT WED AUG 23 2017

NOTE: "FAIR" INDICATES FEW OR NO CLOUDS BELOW 12,000 FEET WITH NO
       SIGNIFICANT WEATHER AND/OR OBSTRUCTIONS TO VISIBILITY.
       CURRENT SKY AND/OR WEATHER CONDITIONS ARE NOT AVAILABLE FOR
       CHILLICOTHE AND FARMINGTON.

MOZ001>031-035>038-043-044-053-054-240500-
...NORTHERN AND WESTERN MISSOURI...

CITY           SKY/WX    TMP DP  RH WIND       PRES   REMARKS
KANSAS CTY INT CLEAR     65  58  78 SE7       30.06S
KANSAS C DTWN  CLEAR     72  59  63 SE3       30.05S
LEE`S SUMMIT   CLEAR     67  58  72 S6        30.07S
ST JOSEPH      CLEAR     62  62 100 CALM      30.05S
CHILLICOTHE      N/A     61  60  97 CALM      30.07S
KIRKSVILLE     CLEAR     58  56  93 CALM      30.07S

$$
MOZ066>068-077>081-088>096-101>105-240500-
...SOUTHWEST MISSOURI...

CITY           SKY/WX    TMP DP  RH WIND       PRES   REMARKS
SPRINGFIELD    CLEAR     66  57  72 NE6       30.07R
JOPLIN         CLEAR     66  60  81 E5        30.06S
BRANSON          N/A     66  55  68 CALM      30.07S

$$
MOZ032>034-039>042-045>050-055>058-069>072-240500-
...CENTRAL MISSOURI...

CITY           SKY/WX    TMP DP  RH WIND       PRES   REMARKS
COLUMBIA       CLEAR     61  57  87 SE3       30.07F
JEFFERSON CITY CLEAR     61  59  93 CALM      30.06F
ROLLA          CLEAR     60  56  86 CALM      30.09S
SEDALIA        CLEAR     64  60  87 E5        30.08S
WHITEMAN AFB   CLEAR     62  61  99 CALM      30.05F
WARRENSBURG    CLEAR     61  59  94 CALM      30.06S
OSAGE BEACH    CLEAR     61  59  93 CALM      30.08S

$$
MOZ051-052-059>065-240500-
...EAST CENTRAL MISSOURI...

CITY           SKY/WX    TMP DP  RH WIND       PRES   REMARKS
ST LOUIS INTL  CLEAR     69  56  62 NE3       30.07S
SPIRIT OF STL  CLEAR     61  60  97 CALM      30.06S
ST CHARLES     CLEAR     63  59  87 CALM      30.05S

$$
MOZ072>076-082>087-097>100-106>115-240500-
...SOUTH CENTRAL AND SOUTHEAST MISSOURI...

CITY           SKY/WX    TMP DP  RH WIND       PRES   REMARKS
CAPE GIRARDEAU CLEAR     59  56  89 CALM      30.03S
FARMINGTON     CLEAR     60  58  92 CALM      30.08R
POPLAR BLUFF   CLEAR     62  60  93 NE3       30.03S
WEST PLAINS    CLEAR     63  55  75 NE3       30.08S

$$


USA.gov is the U.S. government's official web portal to all federal, state and local government web resources and services.